Regional Weather Roundup
Issued by NWS Jackson, KY

Home | Current Version | Previous Version | Graphics & Text | Print | Product List | Glossary On
Versions: 1 2 3 4 5 6 7 8 9 10 11 12 13 14 15 16 17 18 19 20 21 22 23 24 25 26 27
000
ASUS43 KJKL 191410
RWRJKL

EAST KENTUCKY HOURLY WEATHER ROUNDUP
NATIONAL WEATHER SERVICE JACKSON KY
900 AM EST SUN NOV 19 2017

NOTE: "FAIR" INDICATES FEW OR NO CLOUDS BELOW 12,000 FEET WITH
NO SIGNIFICANT WEATHER AND/OR OBSTRUCTIONS TO VISIBILITY.

* THESE REPORTS ARE NOT UNDER NWS QUALITY CONTROL AND MAY NOT
  REPORT WEATHER SUCH AS PRECIPITATION AND FOG.

KYZ079-080-083-085-087-088-110-112-115-119-120-191500
...EASTERN KENTUCKY...

CITY           SKY/WX    TMP DP  RH WIND       PRES   REMARKS
JACKSON        CLOUDY    37  30  75 VRB6      29.99R WCI  32
LONDON         CLOUDY    39  31  72 W9        30.02R WCI  33
SOMERSET*      CLOUDY    37  32  81 W5        30.06R WCI  34
MONTICELLO*    CLOUDY    40  34  79 W8        30.06R WCI  34
WILLIAMSBURG*  CLOUDY    37  34  87 W3        30.03R
MIDDLESBORO*   CLOUDY    39  31  73 NW10      30.03R WCI  32
HARLAN APT*    CLOUDY    37  28  70 W12G18    30.01R WCI  30
PIKE CO APT*   CLOUDY    35  35 100 W3        29.96R
BIG SANDY APT* CLOUDY    38  31  74 NW9       29.97R WCI  32
MOREHEAD APT*  CLOUDY    39  28  65 VRB6      30.00R WCI  35
$$

KYZ035-036-041-042-044-050-067-078-099-191500
...CENTRAL KENTUCKY...

CITY           SKY/WX    TMP DP  RH WIND       PRES   REMARKS
MT STERLING*   CLOUDY    37  32  81 NW5       30.02R WCI  34
FLEMING/MASON* CLOUDY    37  31  77 W10       30.00R WCI  30
DANVILLE*      CLOUDY    37  32  81 W3        30.04R
LEXINGTON      CLOUDY    39  31  72 W7        30.02R WCI  34
FRANKFORT      CLOUDY    40  30  67 W7        30.01R
LOUISVILLE     CLOUDY    40  31  70 NW13      30.05R WCI  32
LEBANON*       CLOUDY    39  30  70 W10       30.05R WCI  32
GLASGOW*       CLOUDY    39  32  77 W8        30.08R WCI  33
BOWLING GREEN  CLOUDY    39  31  72 W10G20    30.12R WCI  32
$$

KYZ091>093-OHZ055-061-077-WVZ005-015-034-035-042-191500
...SOUTHERN OHIO/WEST VIRGINIA...

CITY           SKY/WX    TMP DP  RH WIND       PRES   REMARKS
COVINGTON      CLOUDY    38  32  79 W7        29.97R WCI  33
COLUMBUS       CLOUDY    39  34  82 W12       29.88R WCI  32
DAYTON         CLOUDY    37  32  82 W13       29.93R WCI  29
WILMINGTON     CLOUDY    37  32  82 W13       29.93R WCI  29
HUNTINGTON     CLOUDY    40  30  67 W9        29.95R WCI  34
CHARLESTON     CLOUDY    40  33  76 W9        29.91R WCI  34
PINEVILLE*       N/A     38  34  84 MISG      29.95R
BECKLEY        CLOUDY    36  33  89 W9        29.84R WCI  29
BLUEFIELD      CLOUDY    32  30  92 W18G30    29.85R WCI  20
LOGAN CO APT*  CLOUDY    37  32  81 W7G13     29.92R WCI  32
$$

VAZ002-007-008-TNZ017-027-036-066-071-191500
...SOUTHWEST VIRGINIA/EAST TENNESSEE...

CITY           SKY/WX    TMP DP  RH WIND       PRES   REMARKS
WISE*          CLOUDY    34  34 100 NW7       29.94R WCI  28
JONESVILLE*    CLOUDY    39  32  75 NW5       30.02R
ABINGDON*      CLOUDY    40  35  84 W14       29.92R WCI  32
BRISTOL        LGT RAIN  39  37  92 W12       29.97R WCI  32
MORRISTOWN*    CLOUDY    41  28  60 N13       30.01R
SEVIERVILLE*   CLOUDY    43  36  75 VRB5      30.03R
KNOXVILLE      CLOUDY    42  35  76 CALM      30.03R
OAK RIDGE      CLOUDY    43  35  73 S6        30.04R
CROSSVILLE     CLOUDY    36  29  75 W7        30.03R WCI  30
NASHVILLE      MOSUNNY   41  29  62 NW13      30.13R
$$

...KEY TO REMARKS...
VSB - VISIBILITY IN MILES
WCI - WIND CHILL INDEX
HX  - HEAT INDEX

$$




USA.gov is the U.S. government's official web portal to all federal, state and local government web resources and services.